DELTA 1 DEB, 7176

Orbit data source: Space-Track

DELTA 1 DEB, 7176 is space debris in SSO originally from a launch on Tue, 06 Nov 1973 UTC launched from the Air Force Western Test Range (AFWTR). Debris objects in space refer to the collection of defunct objects orbiting the Earth. Examples of debris include non-operational satellites, rocket bodies, and fragments generated from explosions, collisions, or faulty payload assembly.

Loading next visibility...
Identifier
7176, 1973-086EN
Orbit
SSO
Country
Flag of USUS
Related business
Manufacturer
Unknown
Mission
Spacecraft
Bus & Motor
Unknown
Mass
Unknown
Launch date (UTC)
1973-11-06 (52 years ago)
Launch vehicle
Unknown
Launch site
Air Force Western Test Range (AFWTR)
Object type
Payload
Rocket body
Debris
Shape & HBR
Unknown shape, 0.1 m
Radar Cross Section
Small (<0.1 m²)

Expand to show TLE details & history
Last TLE update: 17 hours ago

TLE from 17 hours ago
0 DELTA 1 DEB
1  7176U 73086EN  26034.28537098  .00000017  00000-0  30277-3 0  9992
2  7176 102.2212 314.7748 0176672 269.8114 211.2267 12.75722813430520
Epoch: 2026-02-03T06:50Z
TLE epoch observation values (Epoch: 2026-02-03T06:50:56.052Z)
Latitude
57.90778°
Longitude
-81.3248°
Altitude
1,485.798 km
Speed
7.072 km/s
True Right ascension
10h 19m 30s
True Declination
57° 46' 02"
Sunlit
Object was in full shadow at epoch
Visualization orbit readout
Latitude
Unknown
Longitude
Unknown
Altitude
Unknown
Speed
Unknown
Apparent Right ascension
Unknown
Apparent Declination
Unknown
Sunlit
N/A
Visualization observer readout
Local Sidereal Time
01:44:49
Azimuth
Unknown
Elevation
Unknown
Doppler factor
Unknown
Orbital elements
Apogee altitude
1,492.901 km
Perigee altitude
1,219.611 km
Semi-major axis
7,734.393 km
Eccentricity
0.01767
Inclination
102.2212°
RAAN
314.7748°
Arg. of periapsis
269.8114°
True anomaly
210.19666°
Mean anomaly
211.2267°
Eccentric anomaly
210.70975°
Mean motion
3.19083 °/min
Orbital period
112.82 mins
BSTAR
0.00030277
Loading maneuver chart data...
Computing Atmospheric mass density...
Loading historical data...
Loading historical data...
Loading historical data...
Loading historical data...
Loading historical data...
Loading historical data...
Loading historical data...

Documentation

Showing up to 5 results
|